Wetbulb
31.10 30.55 30.44 30.58 30.55 30.55 30.83 31.08 32.30 32.91 33.91 34.51 35.15 36.04 35.67 35.89 36.35 36.29 35.66 34.82 36.02 36.05
29.24 29.12 28.67 29.09 29.60 29.59 30.46 32.56 31.66 32.45 32.65 32.78 33.19 34.18 34.19 33.79 33.87 34.33 34.37 34.36 34.31 34.57
28.07 28.34 28.35 28.62 28.46 28.90 29.74 30.50 30.89 31.55 30.91 30.58 30.70 31.07 31.80 31.44 32.39 32.91 33.02 32.85 31.81 32.01
27.13 27.27 27.70 27.49 27.98 28.36 29.09 29.45 30.20 29.75 29.32 29.07 28.81 29.15 28.99 29.59 30.18 30.42 30.37 30.45 29.70 29.41
26.48 26.46 26.10 26.32 26.78 27.95 28.04 28.66 29.34 28.77 28.53 28.29 28.01 27.89 27.59 27.85 28.80 27.96 27.84 28.11 27.59 27.17
24.83 24.84 24.87 25.37 26.50 27.30 27.23 26.86 27.70 27.93 27.73 27.72 27.47 26.61 26.99 27.19 27.03 26.63 26.70 26.43 25.48 23.62
24.02 24.19 24.18 24.80 25.43 26.15 26.25 25.59 26.33 26.30 27.29 27.98 27.64 26.35 25.69 25.97 25.31 25.42 25.74 25.79 25.68 23.57
23.89 23.67 24.01 24.60 25.23 25.75 25.21 24.88 24.96 24.79 25.34 27.07 27.88 27.48 25.28 25.22 24.11 23.90 23.78 23.38 23.92 23.32
23.37 23.71 23.77 24.07 24.49 24.72 24.20 24.83 24.77 24.23 24.20 24.76 27.51 28.58 27.02 24.87 23.42 23.03 22.94 21.61 21.81 22.58
22.96 22.91 22.99 23.77 23.79 24.13 23.31 23.40 23.05 22.88 23.27 23.43 25.51 28.27 26.10 24.57 23.14 21.36 21.35 20.68 20.18 20.69
22.47 22.52 23.42 23.82 23.70 23.66 23.50 22.41 22.22 22.04 22.17 22.31 25.05 26.35 25.21 23.47 22.45 20.34 19.56 19.75 18.62 18.50
23.16 22.76 22.55 22.54 22.95 23.15 23.46 22.42 21.73 21.98 21.23 21.02 22.52 24.90 24.50 21.28 20.60 18.94 17.18 18.74 17.16 17.79
22.70 22.55 22.13 22.44 22.71 23.20 23.42 22.12 22.04 20.29 20.14 19.78 19.43 23.65 23.53 20.73 19.34 16.22 14.12 15.70 15.43 18.02
21.56 21.55 21.86 21.64 21.95 22.15 21.44 20.85 19.30 16.87 17.04 17.24 17.20 19.75 22.03 21.64 18.18 15.24 11.73 11.18 11.06 13.01
MSLP
1023.80 1023.90 1024.09 1024.21 1024.35 1024.43 1024.45 1024.54 1024.44 1024.25 1024.02 1023.89 1023.72 1023.54 1023.46 1023.32 1023.26 1023.29 1023.37 1023.29 1023.13 1023.17
1024.33 1024.46 1024.66 1024.81 1024.84 1024.84 1024.81 1024.66 1024.74 1024.58 1024.49 1024.46 1024.39 1024.30 1024.22 1024.19 1024.18 1023.98 1023.93 1024.11 1023.92 1023.64
1024.90 1025.00 1025.14 1025.19 1025.22 1025.22 1025.21 1025.16 1025.06 1024.93 1025.00 1025.09 1025.04 1025.03 1024.98 1025.04 1025.07 1025.03 1024.85 1024.72 1024.76 1024.52
1025.27 1025.37 1025.44 1025.56 1025.63 1025.56 1025.46 1025.39 1025.33 1025.46 1025.49 1025.54 1025.56 1025.55 1025.69 1025.73 1025.58 1025.41 1025.63 1025.38 1025.37 1025.30
1025.53 1025.76 1025.93 1026.02 1025.99 1025.86 1025.84 1025.75 1025.77 1025.91 1025.92 1025.94 1026.00 1026.12 1026.08 1026.32 1026.47 1026.17 1026.12 1026.03 1025.86 1025.80
1025.90 1026.06 1026.33 1026.47 1026.43 1026.26 1026.22 1026.25 1026.30 1026.35 1026.22 1026.14 1026.24 1026.39 1026.55 1026.65 1026.95 1026.89 1026.74 1026.60 1026.60 1026.76
1026.29 1026.58 1026.73 1026.79 1026.77 1026.74 1026.72 1026.78 1026.82 1026.90 1026.59 1026.44 1026.62 1026.73 1026.83 1026.97 1027.33 1027.31 1027.11 1026.95 1026.95 1027.10
1026.56 1026.78 1026.92 1027.03 1027.05 1027.11 1027.23 1027.39 1027.35 1027.29 1027.21 1026.91 1026.57 1026.65 1027.07 1027.19 1027.27 1027.77 1027.63 1027.53 1027.37 1027.56
1026.69 1026.93 1027.19 1027.41 1027.56 1027.58 1027.70 1027.83 1027.84 1028.13 1028.24 1027.72 1027.16 1027.19 1027.13 1027.34 1027.75 1027.89 1027.91 1027.84 1027.89 1027.78
1026.74 1027.09 1027.25 1027.41 1027.76 1027.95 1028.00 1028.26 1028.49 1028.45 1028.51 1028.47 1027.86 1027.38 1027.51 1027.66 1028.17 1028.31 1028.36 1028.46 1028.43 1028.31
1026.88 1027.18 1027.54 1027.65 1027.92 1028.33 1028.43 1028.61 1028.98 1029.19 1029.15 1028.80 1028.31 1028.15 1027.91 1028.30 1028.44 1028.64 1028.58 1028.71 1029.00 1029.07
1027.23 1027.61 1027.81 1027.98 1028.21 1028.51 1028.76 1028.85 1029.09 1029.49 1029.49 1029.22 1029.09 1028.57 1028.42 1028.91 1028.85 1028.99 1029.11 1029.06 1029.42 1029.28
1027.48 1027.84 1028.22 1028.52 1028.67 1028.89 1029.14 1029.30 1029.62 1029.68 1030.01 1030.23 1029.96 1029.07 1028.89 1029.16 1029.11 1029.45 1029.65 1029.74 1029.78 1029.44
1027.57 1027.99 1028.36 1028.82 1028.95 1029.17 1029.50 1029.65 1029.91 1030.38 1030.76 1030.78 1030.70 1029.89 1029.55 1029.44 1029.53 1029.75 1030.29 1030.35 1030.20 1029.95
Wind_Speed
6 4 4 5 4 3 3 3 4 5 6 8 8 7 7 6 5 5 6 8 6 4
5 6 5 6 5 4 3 4 5 6 8 8 8 8 7 6 6 5 5 5 6 4
5 5 5 5 5 5 4 4 5 7 8 8 9 8 6 6 6 6 5 6 7 6
5 5 5 5 4 4 4 4 6 7 8 8 8 7 7 5 6 7 7 6 8 8
5 5 5 4 4 4 5 5 7 7 8 8 8 7 7 6 6 7 7 7 7 9
5 5 5 4 4 4 5 6 7 6 7 8 8 7 7 7 7 7 7 7 8 8
5 5 4 4 4 5 5 6 6 5 6 7 8 8 7 7 7 6 7 8 8 8
5 5 4 4 4 5 5 5 6 6 5 5 7 8 7 7 8 6 6 8 7 8
5 5 4 4 4 6 6 7 8 7 6 6 7 14 14 9 7 7 6 7 7 6
6 5 5 5 5 6 8 7 7 6 5 5 6 15 14 12 6 7 6 8 8 7
6 6 5 5 6 5 6 7 6 5 5 6 7 14 14 10 6 7 7 8 8 8
6 6 5 6 6 5 6 6 7 6 6 7 7 13 14 8 6 7 7 7 8 9
6 6 5 4 4 4 4 6 6 7 7 7 6 12 13 9 5 6 5 6 7 12
7 6 5 4 4 4 4 7 7 7 5 5 6 8 12 13 6 6 4 4 5 6
Wind_Direction
65 72 69 67 68 64 69 49 25 33 37 38 33 37 40 44 53 46 42 40 41 47
74 74 78 69 68 58 45 77 50 50 58 46 40 35 40 41 38 36 50 32 34 44
81 79 82 78 77 72 62 53 59 70 64 56 47 35 31 35 21 37 30 44 41 32
95 86 77 76 75 75 74 64 72 76 73 64 55 45 38 46 31 55 49 39 47 37
99 89 82 77 78 75 76 59 90 84 79 70 60 49 51 41 32 52 52 46 50 43
105 103 100 97 85 74 77 77 90 88 82 79 67 61 50 48 48 51 49 47 54 43
114 115 115 109 93 82 80 89 97 81 76 79 77 65 58 61 49 45 55 54 66 55
127 121 115 104 94 88 85 79 86 78 51 63 71 68 63 62 62 41 53 51 46 52
127 121 112 102 94 103 94 87 82 58 36 34 63 68 58 66 60 52 46 44 35 40
134 131 126 113 108 108 98 90 85 78 60 14 48 58 58 60 65 58 44 46 27 23
135 126 120 114 111 106 113 104 98 94 67 39 43 45 51 54 64 60 45 61 33 17
139 136 128 130 123 121 129 123 113 101 80 60 37 45 46 43 49 54 40 54 38 11
126 127 122 111 106 101 106 112 111 87 69 56 33 40 38 51 44 49 34 34 28 10
125 120 119 112 112 119 118 113 100 89 71 57 25 28 38 40 35 57 35 32 22 3